STARLINK-5328 (55657 NORAD) Tracking and Keplerian Element Data

This shows tracking and keplerian element data for the satellite.

Feedback or suggestion? Click here.




ElementValue
Catalog55657
NameSTARLINK-5328
Epoch Orbit623
Epoch Day85.04276369
Epoch Year2023
RAAN47.9482
Inclination70.0023
Eccentricity0.0003417
Argument of Perigee272.8397
Mean Anonmoly87.2407
Mean Motion15.69952723
Decay Rate3.26E-05
L11 55657U 23021AF 23085.04276369 .00003260 00000+0 28836-4 0 9992
L22 55657 70.0023 47.9482 0003417 272.8397 87.2407 15.69952723 6237



Live tracking and technical data element details for STARLINK-5328 (NORAD 55657). STARLINK-5328 can be tracked NOW for your location showing map with azimuth and elevation plus other details from your city location.







IsCatalogInMostPopularTable: catalog: 55657, numindb: 2
Update: records affected: 1



GetName: 55657 STARLINK-5328

Hit Count: updated at: Tue, 28 Mar 2023 03:16:29 GMT